Tracking 21076 objects as of 9-Aug-2020
HD Live streaming from Space Station
objects crossing your sky now
Track the most recent launched group of Starlink satellites

BRICSAT 2 (NO-103)

Track BRICSAT 2 (NO-103) now!
10-day predictions
BRICSAT 2 (NO-103) is classified as:


NORAD ID: 44355
Int'l Code: 2019-036S
Perigee: 309.1 km
Apogee: 773.9 km
Inclination: 28.5 °
Period: 95.3 minutes
Semi major axis: 6912 km
RCS: Unknown
Launch date: June 25, 2019
Source: United States (US)
Launch site: AIR FORCE EASTERN TEST RANGE (AFETR)

Uplink (MHz): 28.120/145.825
Downlink (MHz): 145.825/435.350
Beacon (MHz): 437.605
Mode: 1k2/9k6 FSK
Call sign: USNAP1-1
Status: Inactive

aabbcc
Your satellite tracking list
Your tracking list is empty




NASA's NSSDC Master Catalog

Two Line Element Set (TLE):
1 44355U 19036S   20221.76197781 +.00025968 +00000-0 +35798-3 0  9998
2 44355 028.5314 025.2916 0336218 168.7560 192.0769 15.10596732061827
Source of the keplerian elements: AFSPC